Content
SEND FEEDBACK

Daily
Averages
Monthly
Summary
United States of America

HILO - WEST, HAWAII


Home > North America > United States > Hawaii
Elevation: 463 meters     Latitude: 19 41N     Longitude: 155 10W

WEATHER
 
SELECT A DAY
Number of Records: 230,000;   Date Range: 1/1/95 - 7/26/14
 
SHARE

PRINT THIS DATA

[ ← Previous Day ]
WEATHER ALMANAC - 23 JANUARY, 2013
[ Next Day → ]
[ °F ]   °C
Weather ElementAverageHighLow
Temperature20.1 °C23.3 °C (1:31 pm)16.7 °C (6:23 am)
Dewpoint16.8 °C19.4 °C (11:53 am)13.9 °C (3:41 am)
Humidity81.7 %90 % (9:53 pm)66 % (2:53 pm)
Barometer1018.3 hPa1020 hPa (9:53 am)1016.3 hPa (2:53 pm)
Wind Speed8.9 km/h24.1 km/h (1:53 pm)
Weather ElementAverage
Visibility15.1 km
Wind DirectionSSE (161.9 °)

Weather ElementTotal
Precipitation4.06 mm
Cooling Degree Days1.7 (Base 18.3)
Growing Degree Days10 (Base 10)
Averaged from 43 records on 23 January, 2013
WEATHER CONDITIONS BREAKOUT
WIND DIRECTION BREAKOUT
WEATHER BY HOUR - 23 JANUARY, 2013
[ °F ]   °C
Local TimeTemperatureDewpointHumidityBarometerVisibilityWind DirectionWind SpeedGust SpeedPrecipitationEventsConditions
1:53 AM18.9 °C15.6 °C81 %1017.9 hPa16.1 kmWSW (250°)7.4 km/hOvercast
2:53 AM17.8 °C14.4 °C80 %1017.3 hPa16.1 kmSW (230°)9.3 km/hClear
3:41 AM17.2 °C13.9 °C81 %1017.3 hPa16.1 kmSE (140°)5.6 km/hOvercast
3:48 AM17 °C14 °C82 %1017.3 hPa16.1 kmSouth (180°)5.6 km/hOvercast
3:53 AM17.8 °C13.9 °C78 %1017.6 hPa16.1 kmEast (100°)5.6 km/hOvercast
4:38 AM17.2 °C15 °C87 %1017.9 hPa16.1 kmSW (230°)9.3 km/h0 mmOvercast
4:49 AM17 °C14 °C82 %1017.9 hPa16.1 kmSW (230°)13 km/h0 mmOvercast
4:53 AM17.2 °C15 °C87 %1017.9 hPa16.1 kmSW (230°)11.1 km/h0 mmOvercast
5:04 AM17.8 °C15 °C84 %1017.9 hPa16.1 kmWSW (240°)11.1 km/h0 mmRainLight Rain
5:27 AM17.8 °C15.6 °C87 %1018.3 hPa6.4 kmCalm0.25 mmRainLight Rain
5:53 AM17.8 °C15.6 °C87 %1018.3 hPa16.1 kmWSW (240°)13 km/h0.25 mmOvercast
6:23 AM16.7 °C14.4 °C86 %1018.6 hPa16.1 kmSW (230°)9.3 km/hOvercast
6:53 AM17.2 °C14.4 °C84 %1018.6 hPa16.1 kmWSW (250°)11.1 km/hOvercast
7:53 AM18.3 °C15.6 °C84 %1019 hPa16.1 kmWSW (240°)14.8 km/hMostly Cloudy
8:53 AM21.1 °C16.7 °C76 %1019.3 hPa16.1 kmWest (260°)7.4 km/hMostly Cloudy
9:53 AM21.7 °C17.2 °C75 %1020 hPa12.9 kmENE (70°)13 km/hOvercast
10:05 AM22.2 °C17.8 °C76 %1020 hPa16.1 kmCalmMostly Cloudy
10:20 AM22.2 °C17.2 °C73 %1019.6 hPa16.1 kmCalmMostly Cloudy
10:53 AM21.1 °C18.3 °C84 %1019.6 hPa16.1 kmCalm0 mmOvercast
11:39 AM21.7 °C17.8 °C78 %1019.3 hPa12.9 kmVariable7.4 km/h0 mmRainLight Rain
11:53 AM21.7 °C19.4 °C87 %1018.6 hPa12.9 kmWSW (240°)13 km/h0 mmRainLight Rain
12:05 PM22.2 °C18.9 °C81 %1018.6 hPa16.1 kmWest (270°)11.1 km/h0 mmScattered Clouds
12:20 PM22.2 °C18.3 °C78 %1018.3 hPa16.1 kmSW (220°)7.4 km/h0 mmRainLight Rain
12:53 PM22.8 °C17.8 °C73 %1017.9 hPa16.1 kmESE (120°)11.1 km/h0 mmMostly Cloudy
1:31 PM23.3 °C18.9 °C76 %1017.3 hPa16.1 kmCalmMostly Cloudy
1:53 PM23.3 °C17.8 °C71 %1016.9 hPa16.1 kmEast (100°)24.1 km/hMostly Cloudy
2:53 PM23.3 °C16.7 °C66 %1016.3 hPa16.1 kmEast (100°)24.1 km/hOvercast
3:53 PM23.3 °C16.7 °C66 %1016.6 hPa16.1 kmSE (130°)14.8 km/hOvercast
4:53 PM22.8 °C17.2 °C71 %1016.6 hPa16.1 kmSE (140°)14.8 km/hOvercast
5:53 PM22.2 °C17.2 °C73 %1017.3 hPa16.1 kmSouth (180°)7.4 km/hOvercast
6:53 PM21.1 °C17.2 °C78 %1017.9 hPa16.1 kmESE (120°)9.3 km/h0 mmRainLight Rain
7:53 PM20.6 °C18.3 °C87 %1018.6 hPa16.1 kmSW (220°)7.4 km/h0.76 mmOvercast
8:17 PM20.6 °C18.3 °C87 %1018.6 hPa14.5 kmCalm0 mmRainLight Rain
8:25 PM20.6 °C18.3 °C87 %1018.6 hPa16.1 kmCalm0 mmRainLight Rain
8:53 PM20.6 °C18.3 °C87 %1019 hPa12.9 kmSW (230°)7.4 km/h0 mmRainLight Rain
9:08 PM20.6 °C18.3 °C87 %1019 hPa12.9 kmWSW (240°)5.6 km/h0.25 mmRainLight Rain
9:50 PM20 °C18 °C88 %1019 hPa14.5 kmSSW (210°)9.3 km/h0.51 mmRainLight Rain
9:53 PM20 °C18.3 °C90 %1019 hPa16.1 kmSW (230°)9.3 km/h0.51 mmRainLight Rain
10:53 PM20 °C17.8 °C87 %1019 hPa12.9 kmSSE (150°)9.3 km/h0 mmOvercast
11:01 PM19.4 °C17.8 °C90 %1019 hPa6.4 kmSSW (210°)9.3 km/h0 mmRainLight Rain
11:17 PM19.4 °C17.8 °C90 %1019 hPa16.1 kmWSW (240°)9.3 km/h0.51 mmOvercast
11:26 PM19.4 °C17.8 °C90 %1019 hPa16.1 kmWSW (240°)9.3 km/h0.51 mmOvercast
11:53 PM19.4 °C17.8 °C90 %1018.6 hPa16.1 kmWSW (250°)11.1 km/h0.51 mmMostly Cloudy
Hourly data recorded from PHTO, located 0 kilometers away from Hilo - West, Hawaii







STORIES FROM OUR PARTNERS